OE9GTV Weather Reports


time (UTC)temp
C
wind
direction
speed
KPH
gust
KPH
rain 1hr
cm
rain 24hr
cm
rain mn
cm
humidity
%
barometer
mb
20260507162111 15 17 1.6 4.8 0.00 0.15 0.15 74 1011.8
20260507161739 15 17 0.0 9.7 0.00 0.15 0.15 74 1011.7
20260507145115 15 23 4.8 11.3 0.00 0.20 0.15 75 1011.7
20260507144114 16 13 3.2 12.9 0.00 0.20 0.15 72 1011.7
20260507143115 16 331 4.8 9.7 0.00 0.20 0.15 68 1011.6
20260507142114 16 19 4.8 11.3 0.00 0.20 0.15 66 1011.5
20260507141115 16 40 6.4 16.1 0.00 0.20 0.15 64 1011.5
20260507140114 16 26 8.0 16.1 0.00 0.20 0.15 64 1011.5
20260507135114 17 23 9.7 20.9 0.00 0.20 0.15 63 1011.5
20260507134115 17 13 4.8 11.3 0.00 0.20 0.15 61 1011.5
20260507133114 17 28 6.4 14.5 0.00 0.20 0.15 65 1011.5
20260507132114 17 32 6.4 12.9 0.00 0.20 0.15 63 1011.5
20260507131114 17 360 6.4 12.9 0.00 0.20 0.15 64 1011.5
20260507130114 16 34 6.4 14.5 0.00 0.20 0.15 66 1011.5
20260507125114 16 33 6.4 12.9 0.00 0.20 0.15 66 1011.5
20260507124114 16 22 6.4 14.5 0.00 0.20 0.15 68 1011.5
20260507123114 16 23 8.0 19.3 0.00 0.20 0.15 68 1011.4
20260507122114 16 30 8.0 17.7 0.00 0.20 0.15 69 1011.5
20260507121113 16 344 8.0 16.1 0.00 0.20 0.15 65 1011.4
20260507120113 16 319 4.8 17.7 0.00 0.20 0.15 63 1011.4
20260507115114 17 22 8.0 16.1 0.00 0.20 0.15 63 1011.4
20260507114113 17 346 9.7 24.1 0.00 0.20 0.15 63 1011.3
20260507113113 17 31 11.3 20.9 0.00 0.20 0.15 62 1011.4
20260507112113 17 347 8.0 19.3 0.00 0.20 0.15 61 1011.3
20260507111113 17 327 6.4 14.5 0.00 0.20 0.15 61 1011.4
20260507110113 17 47 8.0 16.1 0.00 0.20 0.15 62 1011.4
20260507105113 17 360 4.8 11.3 0.00 0.20 0.15 59 1011.5
20260507104113 17 12 4.8 11.3 0.00 0.20 0.15 62 1011.5
20260507103113 16 32 4.8 8.0 0.00 0.20 0.15 60 1011.6
20260507102113 16 32 4.8 8.0 0.00 0.20 0.15 63 1011.7
20260507101113 16 317 4.8 16.1 0.00 0.20 0.15 63 1011.8
20260507100113 16 70 1.6 8.0 0.00 0.20 0.15 64 1011.8
20260507095112 16 70 3.2 6.4 0.00 0.20 0.15 63 1011.9
20260507094113 15 70 1.6 6.4 0.00 0.20 0.15 66 1011.9
20260507093112 15 70 3.2 6.4 0.00 0.20 0.15 69 1012.0
20260507092112 15 70 1.6 6.4 0.00 0.20 0.15 69 1011.9
20260507091113 15 70 4.8 9.7 0.00 0.20 0.15 73 1011.9
20260507090112 14 70 3.2 6.4 0.00 0.20 0.15 74 1011.9
20260507085113 13 70 0.0 4.8 0.00 0.20 0.15 77 1011.9
20260507084112 13 70 0.0 3.2 0.00 0.20 0.15 77 1011.9
20260507083112 13 70 1.6 6.4 0.00 0.20 0.15 80 1011.9
20260507082112 13 70 0.0 1.6 0.00 0.20 0.15 82 1011.8
20260507081112 12 70 1.6 3.2 0.00 0.20 0.15 84 1011.8
20260507080112 12 70 0.0 3.2 0.00 0.20 0.15 87 1011.9
20260507075112 11 70 1.6 4.8 0.00 0.20 0.15 89 1011.9
20260507074112 11 70 1.6 6.4 0.00 0.20 0.15 90 1011.9
20260507073112 11 70 0.0 4.8 0.00 0.20 0.15 91 1011.9
20260507072112 11 70 3.2 6.4 0.00 0.20 0.15 91 1011.8
20260507071112 11 70 3.2 6.4 0.00 0.20 0.15 91 1011.9
20260507070111 10 70 1.6 4.8 0.00 0.20 0.15 91 1011.8
20260507065111 10 70 0.0 3.2 0.00 0.20 0.15 91 1011.6
20260507064111 10 70 0.0 3.2 0.00 0.20 0.15 91 1011.6
20260507063111 10 70 0.0 1.6 0.00 0.20 0.15 91 1011.6
20260507062111 10 70 0.0 0.0 0.00 0.20 0.15 91 1011.5
20260507061111 10 70 0.0 0.0 0.00 0.20 0.15 90 1011.5
20260507060111 10 70 0.0 4.8 0.00 0.20 0.15 90 1011.4
20260507055112 9 70 0.0 3.2 0.00 0.20 0.15 90 1011.3
20260507054111 9 70 0.0 4.8 0.00 0.20 0.15 90 1011.2
20260507053111 9 70 1.6 6.4 0.00 0.20 0.15 90 1011.1
20260507052111 9 70 0.0 1.6 0.00 0.20 0.15 90 1011.0
20260507051111 9 70 1.6 4.8 0.00 0.20 0.15 90 1010.9
20260507050111 9 70 1.6 8.0 0.00 0.20 0.15 89 1010.8
20260507045111 9 69 1.6 3.2 0.00 0.20 0.15 89 1010.7
20260507044111 9 69 0.0 3.2 0.00 0.20 0.15 89 1010.7
20260507043111 8 69 0.0 3.2 0.00 0.20 0.15 89 1010.6
20260507042110 8 69 1.6 4.8 0.00 0.20 0.15 89 1010.4
20260507041110 8 69 1.6 6.4 0.00 0.20 0.15 89 1010.2
20260507040111 8 69 3.2 6.4 0.00 0.20 0.15 89 1010.2
20260507035111 8 69 3.2 9.7 0.00 0.20 0.15 88 1010.2
20260507034110 8 69 0.0 0.0 0.00 0.20 0.15 88 1010.2
20260507033110 8 69 0.0 0.0 0.00 0.20 0.15 88 1010.2
20260507032111 8 69 0.0 0.0 0.00 0.20 0.15 88 1010.1
20260507031110 8 69 0.0 0.0 0.00 0.20 0.15 88 1010.0
20260507030111 9 69 0.0 0.0 0.00 0.20 0.15 88 1010.0
20260507025110 9 69 0.0 0.0 0.00 0.20 0.15 88 1009.9
20260507024110 9 69 0.0 0.0 0.00 0.20 0.15 88 1009.9
20260507023110 9 69 0.0 0.0 0.00 0.20 0.15 88 1009.9
20260507022110 9 69 0.0 0.0 0.00 0.20 0.15 88 1009.9
20260507021110 9 65 1.6 4.8 0.00 0.20 0.15 87 1009.8
20260507020110 9 65 1.6 4.8 0.00 0.20 0.15 87 1009.7
20260507015110 10 65 0.0 1.6 0.00 0.20 0.15 87 1009.7
20260507014109 10 65 0.0 0.0 0.00 0.20 0.15 87 1009.5
20260507013109 10 65 0.0 0.0 0.00 0.20 0.15 87 1009.6
20260507012109 10 65 0.0 0.0 0.00 0.20 0.15 87 1009.5
20260507011109 10 65 4.8 8.0 0.00 0.20 0.15 87 1009.4
20260507010114 10 65 1.6 4.8 0.00 0.20 0.15 87 1009.3
20260507005114 10 65 1.6 4.8 0.00 0.20 0.15 86 1009.4
20260507004114 10 65 1.6 11.3 0.00 0.20 0.15 86 1009.3
20260507003114 10 60 0.0 0.0 0.03 0.20 0.15 86 1009.3
20260507002114 10 61 0.0 0.0 0.05 0.20 0.15 85 1009.2
20260507001114 10 60 0.0 0.0 0.10 0.20 0.15 85 1009.3
20260507000114 10 60 1.6 6.4 0.13 0.20 0.15 85 1009.3
20260506235114 10 60 1.6 4.8 0.15 0.20 0.15 85 1009.3
20260506234114 10 60 1.6 4.8 0.15 0.20 0.15 85 1009.4
20260506233114 10 60 0.0 0.0 0.13 0.18 0.13 85 1009.4
20260506232114 10 60 0.0 0.0 0.10 0.15 0.10 84 1009.4
20260506231114 10 60 0.0 0.0 0.05 0.10 0.05 84 1009.3
20260506230114 10 60 0.0 0.0 0.03 0.08 0.03 84 1009.3
20260506225116 10 60 0.0 0.0 0.00 0.05 0.00 84 1009.1
20260506224114 10 60 0.0 0.0 0.00 0.05 0.00 84 1009.1
20260506223113 10 60 0.0 0.0 0.00 0.05 0.00 83 1009.0
20260506222114 10 61 0.0 0.0 0.00 0.05 0.00 83 1009.0
20260506221113 10 60 0.0 0.0 0.00 0.05 0.00 83 1009.0
20260506220113 10 60 0.0 0.0 0.00 0.05 0.00 83 1008.9
20260506215113 10 61 0.0 0.0 0.00 0.05 0.05 83 1008.8
20260506214113 10 60 0.0 0.0 0.00 0.05 0.05 83 1008.7
20260506213113 10 60 0.0 0.0 0.00 0.05 0.05 82 1008.6
20260506212113 10 60 0.0 0.0 0.00 0.05 0.05 82 1008.7
20260506211113 10 60 0.0 0.0 0.00 0.05 0.05 82 1008.6
20260506210113 10 60 0.0 0.0 0.00 0.05 0.05 82 1008.6
20260506205113 10 60 0.0 0.0 0.00 0.05 0.05 82 1008.5
20260506204113 10 60 0.0 0.0 0.00 0.05 0.05 81 1008.6
20260506203113 11 60 0.0 0.0 0.00 0.05 0.05 81 1008.5
20260506202113 11 60 0.0 0.0 0.00 0.05 0.05 80 1008.4
20260506201113 11 60 0.0 0.0 0.00 0.05 0.05 80 1008.2
20260506200112 11 60 0.0 0.0 0.00 0.05 0.05 80 1008.2
20260506195113 11 60 0.0 0.0 0.00 0.05 0.05 79 1008.2
20260506194112 11 60 0.0 0.0 0.00 0.05 0.05 79 1008.1
20260506193112 11 60 0.0 0.0 0.00 0.05 0.05 78 1007.9
20260506192112 11 60 0.0 0.0 0.00 0.05 0.05 78 1007.8
20260506191112 11 60 0.0 0.0 0.00 0.05 0.05 78 1007.8
20260506190112 11 61 0.0 0.0 0.00 0.05 0.05 78 1007.6
20260506185112 11 60 0.0 1.6 0.00 0.05 0.05 78 1007.4
20260506184112 12 60 0.0 0.0 0.00 0.05 0.05 78 1007.2
20260506183112 12 60 0.0 0.0 0.00 0.05 0.05 78 1007.0
20260506182112 12 61 1.6 8.0 0.00 0.05 0.05 78 1006.9
20260506181112 12 60 1.6 4.8 0.00 0.05 0.05 78 1006.9
20260506180112 12 61 3.2 6.4 0.00 0.05 0.05 78 1006.7
20260506175111 12 61 3.2 8.0 0.00 0.05 0.05 78 1006.6
20260506174111 12 61 1.6 6.4 0.00 0.05 0.05 77 1006.7
20260506173112 12 61 4.8 9.7 0.00 0.05 0.05 77 1006.6
20260506172111 12 43 3.2 12.9 0.00 0.05 0.05 78 1006.4
20260506171111 12 46 6.4 12.9 0.00 0.05 0.05 78 1006.3
20260506170111 12 51 8.0 17.7 0.00 0.05 0.05 78 1006.2
20260506165111 12 49 4.8 11.3 0.00 0.05 0.05 78 1006.0
20260506164111 12 58 1.6 4.8 0.00 0.05 0.05 79 1005.9
20260506163111 12 59 3.2 8.0 0.00 0.05 0.05 79 1005.7